User: anonymous   Login
Location: Unspecified
(0.0000°N, 0.0000°E)
Time: 02:11:04
(UTC+00:00)
Language:

Jikiken - Orbit

View from above orbital plane
View from above orbital plane
View from above satellite
View from above satellite

Ground track
Ground track

The orbit data is extracted from the following two-line orbital elements,

1 11027U 78087A   18110.71550407  .07975702 -32375-5  28798-3 0  9991
2 11027  30.9946 157.3662 0299696 347.0479  12.7421 15.81461008477176
Epoch (UTC): 20 April 2018 17:10:19
Eccentricity: 0.0299696
inclination: 30.9946°
perigee height: 125 km
apogee height: 527 km
right ascension of ascending node: 157.3662°
argument of perigee: 347.0479°
revolutions per day: 15.81461008
mean anomaly at epoch: 12.7421°
orbit number at epoch: 47717

The dashed part of the orbit path shows where the satellite is in the earth's shadow,  

DLR